ONEWEB-0179, 48212

Orbit data source: Space-Track

ONEWEB-0179, 48212 is a payload satellite owned by One Web (NAA) (UK) in LEO that was launched on Sun, 25 Apr 2021 UTC via a SOYUZ-2-1B launch vehicle from the Vostochny Cosmodrome (VOSTO). Payload-class satellites include a variety of spacecraft equipped with specific instruments for various scientific and technological missions. These include communications satellites like Starlink; space stations such as the ISS; scientific satellites like the Hubble; Earth observation satellites from companies like Planet Labs, Umbra, and HawkEye 360; GPS; miniature CubeSats for education and research; and military/defense satellites.

Loading next visibility...
Identifier
48212, 2021-031C
Orbit
LEO
Country
Flag of UKUK
Related business
Manufacturer
One Web
Mission
Operational Commercial Communications
Bus & Motor
ARROW, Unknown motor
Mass
148 kg wet, ~140 kg dry
Launch date (UTC)
2021-04-25 (5 years ago)
Launch vehicle
SOYUZ-2-1B
Launch site
Vostochny Cosmodrome (VOSTO)
Object type
Payload
Rocket body
Debris
Shape & HBR
Trap Box + 2 Pan, 6.7 m
Radar Cross Section
3.464 m², Large (>1 m²)

Expand to show TLE details & history
Last TLE update: 1 day ago

TLE from 1 day ago
0 ONEWEB-0179
1 48212U 21031C   25305.37828395  .00000271  00000-0  69658-3 0  9991
2 48212  87.9009 335.0727 0001859  91.4170 268.7173 13.14504237218403
Epoch: 2025-11-01T09:04Z
TLE epoch observation values (Epoch: 2025-11-01T09:04:43.733Z)
Latitude
0.00002°
Longitude
157.98126°
Altitude
1,208.71 km
Speed
7.25 km/s
True Right ascension
22h 20m 17s
True Declination
0° 00' 00"
Sunlit
Object was in daylight at epoch
Visualization orbit readout
Latitude
Unknown
Longitude
Unknown
Altitude
Unknown
Speed
Unknown
Apparent Right ascension
Unknown
Apparent Declination
Unknown
Sunlit
N/A
Visualization observer readout
Local Sidereal Time
09:14:10
Azimuth
Unknown
Elevation
Unknown
Doppler factor
Unknown
Orbital elements
Apogee altitude
1,204.308 km
Perigee altitude
1,201.489 km
Semi-major axis
7,581.035 km
Eccentricity
0.00019
Inclination
87.9009°
RAAN
335.0727°
Arg. of periapsis
91.417°
True anomaly
268.696°
Mean anomaly
268.7173°
Eccentric anomaly
268.70665°
Mean motion
3.28814 °/min
Orbital period
109.48 mins
BSTAR
0.00069658
Loading maneuver chart data...
Computing Atmospheric mass density...
Loading historical data...
Loading historical data...
Loading historical data...
Loading historical data...
Loading historical data...
Loading historical data...
Loading historical data...

Documentation

Showing up to 5 results
|